Time,TemperatureF,DewpointF,PressureIn,WindDirection,WindDirectionDegrees,WindSpeedMPH,WindSpeedGustMPH,Humidity,HourlyPrecipIn,Conditions,Clouds,dailyrainin,SoftwareType,DateUTC
2013-07-01 00:02:00,68.5,62.8,29.90,North,-999,-999.0,2.0,82,0.00,,,0.00,meteohub,2013-07-01 07:02:00,
2013-07-01 00:07:00,67.6,62.2,29.90,North,0,0.0,2.0,83,0.00,,,0.00,meteohub,2013-07-01 07:07:00,
2013-07-01 00:12:00,68.0,62.6,29.90,West,270,2.0,2.0,83,0.00,,,0.00,meteohub,2013-07-01 07:12:00,
2013-07-01 00:17:00,67.3,61.9,29.90,North,0,0.0,2.0,83,0.00,,,0.00,meteohub,2013-07-01 07:17:00,
2013-07-01 00:22:00,67.8,62.4,29.90,North,0,0.0,2.0,83,0.00,,,0.00,meteohub,2013-07-01 07:22:00,
2013-07-01 00:27:00,66.7,61.7,29.90,North,0,1.0,2.0,84,0.00,,,0.00,meteohub,2013-07-01 07:27:00,
2013-07-01 00:32:00,67.5,62.4,29.90,North,0,1.0,1.0,84,0.00,,,0.00,meteohub,2013-07-01 07:32:00,
2013-07-01 00:37:00,66.7,61.7,29.90,North,0,0.0,1.0,84,0.00,,,0.00,meteohub,2013-07-01 07:37:00,
2013-07-01 00:42:00,66.6,61.5,29.91,North,0,0.0,1.0,84,0.00,,,0.00,meteohub,2013-07-01 07:42:00,
2013-07-01 00:47:00,66.9,61.9,29.90,West,270,0.0,2.0,84,0.00,,,0.00,meteohub,2013-07-01 07:47:00,
2013-07-01 00:52:00,67.1,62.1,29.91,NNE,23,0.0,2.0,84,0.00,,,0.00,meteohub,2013-07-01 07:52:00,
2013-07-01 00:57:00,66.7,61.7,29.91,North,0,0.0,2.0,84,0.00,,,0.00,meteohub,2013-07-01 07:57:00,
2013-07-01 01:02:00,66.0,61.3,29.91,North,0,0.0,2.0,85,0.00,,,0.00,meteohub,2013-07-01 08:02:00,
2013-07-01 01:07:00,65.8,61.5,29.91,North,0,0.0,1.0,86,0.00,,,0.00,meteohub,2013-07-01 08:07:00,
2013-07-01 01:12:00,65.7,61.7,29.91,North,0,0.0,1.0,87,0.00,,,0.00,meteohub,2013-07-01 08:12:00,
2013-07-01 01:17:00,65.5,61.9,29.91,North,0,0.0,1.0,88,0.00,,,0.00,meteohub,2013-07-01 08:17:00,
2013-07-01 01:23:00,65.3,61.7,29.90,North,0,0.0,0.0,88,0.00,,,0.00,meteohub,2013-07-01 08:23:00,
2013-07-01 01:28:00,64.9,61.3,29.90,North,0,0.0,0.0,88,0.00,,,0.00,meteohub,2013-07-01 08:28:00,
2013-07-01 01:33:00,64.6,61.0,29.91,North,0,0.0,0.0,88,0.00,,,0.00,meteohub,2013-07-01 08:33:00,
2013-07-01 01:38:00,64.4,61.2,29.91,North,0,0.0,0.0,89,0.00,,,0.00,meteohub,2013-07-01 08:38:00,
2013-07-01 01:43:00,64.0,61.0,29.91,North,0,0.0,0.0,90,0.00,,,0.00,meteohub,2013-07-01 08:43:00,
2013-07-01 01:48:00,63.9,60.8,29.91,North,0,0.0,0.0,90,0.00,,,0.00,meteohub,2013-07-01 08:48:00,
2013-07-01 01:53:00,63.9,61.2,29.91,North,0,0.0,0.0,91,0.00,,,0.00,meteohub,2013-07-01 08:53:00,
2013-07-01 01:58:00,64.2,61.9,29.91,West,270,0.0,0.0,92,0.00,,,0.00,meteohub,2013-07-01 08:58:00,
2013-07-01 02:03:00,64.2,61.9,29.91,West,270,0.0,2.0,92,0.00,,,0.00,meteohub,2013-07-01 09:03:00,
2013-07-01 02:08:00,64.0,61.7,29.91,West,270,0.0,2.0,92,0.00,,,0.00,meteohub,2013-07-01 09:08:00,
2013-07-01 02:13:00,64.0,62.1,29.91,West,270,0.0,2.0,93,0.00,,,0.00,meteohub,2013-07-01 09:13:00,
2013-07-01 02:18:00,63.9,61.9,29.91,West,270,0.0,0.0,93,0.00,,,0.00,meteohub,2013-07-01 09:18:00,
2013-07-01 02:23:00,63.7,61.7,29.91,West,270,0.0,0.0,93,0.00,,,0.00,meteohub,2013-07-01 09:23:00,
2013-07-01 02:28:00,63.5,61.5,29.91,West,270,0.0,0.0,93,0.00,,,0.00,meteohub,2013-07-01 09:28:00,
2013-07-01 02:33:00,63.3,61.5,29.91,West,270,0.0,0.0,94,0.00,,,0.00,meteohub,2013-07-01 09:33:00,
2013-07-01 02:38:00,63.3,61.5,29.91,West,270,0.0,0.0,94,0.00,,,0.00,meteohub,2013-07-01 09:38:00,
2013-07-01 02:43:00,62.6,61.5,29.91,North,0,0.0,0.0,96,0.00,,,0.00,meteohub,2013-07-01 09:43:00,
2013-07-01 02:48:00,65.8,64.6,29.91,North,0,0.0,1.0,96,0.00,,,0.00,meteohub,2013-07-01 09:48:00,
2013-07-01 02:53:00,63.1,61.7,29.91,North,0,0.0,1.0,95,0.00,,,0.00,meteohub,2013-07-01 09:53:00,
2013-07-01 02:58:00,54.3,52.9,29.91,North,0,2.0,2.0,95,0.00,,,0.00,meteohub,2013-07-01 09:58:00,
2013-07-01 03:03:00,63.3,61.9,29.91,North,0,1.0,1.0,95,0.00,,,0.00,meteohub,2013-07-01 10:03:00,
2013-07-01 03:08:00,63.3,62.2,29.91,North,0,1.0,2.0,96,0.00,,,0.00,meteohub,2013-07-01 10:08:00,
2013-07-01 03:13:00,63.5,62.4,29.91,North,0,0.0,2.0,96,0.00,,,0.00,meteohub,2013-07-01 10:13:00,
2013-07-01 03:18:00,64.4,63.3,29.91,North,0,0.0,2.0,96,0.00,,,0.00,meteohub,2013-07-01 10:18:00,
2013-07-01 03:23:00,64.2,63.1,29.91,North,0,0.0,1.0,96,0.00,,,0.00,meteohub,2013-07-01 10:23:00,
2013-07-01 03:28:00,63.5,62.4,29.91,North,0,0.0,1.0,96,0.00,,,0.00,meteohub,2013-07-01 10:28:00,
2013-07-01 03:33:00,64.6,63.1,29.91,North,0,1.0,1.0,95,0.00,,,0.00,meteohub,2013-07-01 10:33:00,
2013-07-01 03:38:00,64.2,62.8,29.91,North,0,0.0,1.0,95,0.00,,,0.00,meteohub,2013-07-01 10:38:00,
2013-07-01 03:43:00,64.6,62.8,29.91,North,0,2.0,2.0,94,0.00,,,0.00,meteohub,2013-07-01 10:43:00,
2013-07-01 03:48:00,64.9,62.8,29.91,North,0,0.0,2.0,93,0.00,,,0.00,meteohub,2013-07-01 10:48:00,
2013-07-01 03:53:00,63.9,61.9,29.91,North,0,2.0,2.0,93,0.00,,,0.00,meteohub,2013-07-01 10:53:00,
2013-07-01 03:58:00,63.9,61.5,29.91,North,0,1.0,2.0,92,0.00,,,0.00,meteohub,2013-07-01 10:58:00,
2013-07-01 04:03:00,64.9,62.2,29.91,North,0,0.0,2.0,91,0.00,,,0.00,meteohub,2013-07-01 11:03:00,
2013-07-01 04:08:00,64.8,62.4,29.91,North,0,0.0,2.0,92,0.00,,,0.00,meteohub,2013-07-01 11:08:00,
2013-07-01 04:13:00,64.6,61.9,29.91,North,0,2.0,2.0,91,0.00,,,0.00,meteohub,2013-07-01 11:13:00,
2013-07-01 04:18:00,64.6,62.2,29.92,North,-999,-999.0,3.0,92,0.00,,,0.00,meteohub,2013-07-01 11:18:00,
2013-07-01 04:23:00,64.2,61.9,29.92,North,-999,-999.0,3.0,92,0.00,,,0.00,meteohub,2013-07-01 11:23:00,
2013-07-01 04:28:00,62.4,60.4,29.91,North,0,1.0,3.0,93,0.00,,,0.00,meteohub,2013-07-01 11:28:00,
2013-07-01 04:34:00,62.6,60.8,29.91,North,0,0.0,1.0,94,0.00,,,0.00,meteohub,2013-07-01 11:34:00,
2013-07-01 04:39:00,63.3,61.9,29.92,North,0,1.0,1.0,95,0.00,,,0.00,meteohub,2013-07-01 11:39:00,
2013-07-01 04:44:00,63.3,61.9,29.92,North,-999,-999.0,1.0,95,0.00,,,0.00,meteohub,2013-07-01 11:44:00,
2013-07-01 04:49:00,63.0,61.5,29.92,North,-999,-999.0,1.0,95,0.00,,,0.00,meteohub,2013-07-01 11:49:00,
2013-07-01 04:54:00,63.0,61.5,29.92,North,-999,-999.0,1.0,95,0.00,,,0.00,meteohub,2013-07-01 11:54:00,
2013-07-01 04:59:00,62.8,61.3,29.92,North,-999,-999.0,-999.0,95,0.00,,,0.00,meteohub,2013-07-01 11:59:00,
2013-07-01 05:04:00,61.7,60.6,29.93,North,0,0.0,1.0,96,0.00,,,0.00,meteohub,2013-07-01 12:04:00,
2013-07-01 05:09:00,62.8,61.7,29.93,NNE,23,0.0,1.0,96,0.00,,,0.00,meteohub,2013-07-01 12:09:00,
2013-07-01 05:14:00,61.9,60.4,29.93,North,0,0.0,1.0,95,0.00,,,0.00,meteohub,2013-07-01 12:14:00,
2013-07-01 05:19:00,62.6,61.2,29.93,North,0,1.0,1.0,95,0.00,,,0.00,meteohub,2013-07-01 12:19:00,
2013-07-01 05:24:00,62.2,60.8,29.93,West,270,0.0,1.0,95,0.00,,,0.00,meteohub,2013-07-01 12:24:00,
2013-07-01 05:29:00,62.6,61.2,29.93,West,270,0.0,1.0,95,0.00,,,0.00,meteohub,2013-07-01 12:29:00,
2013-07-01 05:34:00,61.7,60.3,29.93,North,0,0.0,1.0,95,0.00,,,0.00,meteohub,2013-07-01 12:34:00,
2013-07-01 05:39:00,62.6,61.2,29.93,North,0,0.0,1.0,95,0.00,,,0.00,meteohub,2013-07-01 12:39:00,
2013-07-01 05:44:00,62.6,60.8,29.94,North,-999,-999.0,0.0,94,0.00,,,0.00,meteohub,2013-07-01 12:44:00,
2013-07-01 05:49:00,62.4,60.6,29.93,North,-999,-999.0,0.0,94,0.00,,,0.00,meteohub,2013-07-01 12:49:00,
2013-07-01 05:54:00,62.2,60.4,29.93,North,-999,-999.0,-999.0,94,0.00,,,0.00,meteohub,2013-07-01 12:54:00,
2013-07-01 05:59:00,62.4,61.0,29.94,North,-999,-999.0,-999.0,95,0.00,,,0.00,meteohub,2013-07-01 12:59:00,
2013-07-01 06:04:00,62.4,61.0,29.94,North,-999,-999.0,-999.0,95,0.00,,,0.00,meteohub,2013-07-01 13:04:00,
2013-07-01 06:09:00,62.6,61.2,29.93,North,-999,-999.0,-999.0,95,0.00,,,0.00,meteohub,2013-07-01 13:09:00,
2013-07-01 06:14:00,63.1,61.3,29.93,North,0,1.0,-999.0,94,0.00,,,0.00,meteohub,2013-07-01 13:14:00,
2013-07-01 06:19:00,63.0,61.0,29.94,West,270,0.0,1.0,93,0.00,,,0.00,meteohub,2013-07-01 13:19:00,
2013-07-01 06:24:00,63.7,61.3,29.94,North,0,0.0,2.0,92,0.00,,,0.00,meteohub,2013-07-01 13:24:00,
2013-07-01 06:29:00,63.9,61.5,29.94,North,-999,-999.0,2.0,92,0.00,,,0.00,meteohub,2013-07-01 13:29:00,
2013-07-01 06:34:00,64.0,61.7,29.94,North,-999,-999.0,2.0,92,0.00,,,0.00,meteohub,2013-07-01 13:34:00,
2013-07-01 06:39:00,64.4,61.7,29.94,North,-999,-999.0,1.0,91,0.00,,,0.00,meteohub,2013-07-01 13:39:00,
2013-07-01 06:44:00,63.7,61.0,29.94,North,0,1.0,-999.0,91,0.00,,,0.00,meteohub,2013-07-01 13:44:00,
2013-07-01 06:49:00,64.2,61.2,29.94,North,0,0.0,1.0,90,0.00,,,0.00,meteohub,2013-07-01 13:49:00,
2013-07-01 06:54:00,64.6,61.5,29.94,North,0,0.0,1.0,90,0.00,,,0.00,meteohub,2013-07-01 13:54:00,
2013-07-01 06:59:00,65.3,62.1,29.94,West,270,0.0,1.0,89,0.00,,,0.00,meteohub,2013-07-01 13:59:00,
2013-07-01 07:04:00,65.3,62.1,29.94,North,0,1.0,1.0,89,0.00,,,0.00,meteohub,2013-07-01 14:04:00,
2013-07-01 07:09:00,66.0,62.4,29.94,West,270,0.0,1.0,88,0.00,,,0.00,meteohub,2013-07-01 14:09:00,
2013-07-01 07:14:00,66.6,62.6,29.95,West,270,0.0,2.0,87,0.00,,,0.00,meteohub,2013-07-01 14:14:00,
2013-07-01 07:19:00,63.9,59.2,29.95,NNE,23,2.0,2.0,85,0.00,,,0.00,meteohub,2013-07-01 14:19:00,
2013-07-01 07:24:00,69.1,64.4,29.96,North,0,0.0,2.0,85,0.00,,,0.00,meteohub,2013-07-01 14:24:00,
2013-07-01 07:30:00,69.3,63.1,29.95,SSW,203,0.0,2.0,81,0.00,,,0.00,meteohub,2013-07-01 14:30:00,
2013-07-01 07:35:00,72.0,64.0,29.95,West,270,0.0,2.0,76,0.00,,,0.00,meteohub,2013-07-01 14:35:00,
2013-07-01 07:40:00,72.3,63.9,29.95,West,270,1.0,2.0,75,0.00,,,0.00,meteohub,2013-07-01 14:40:00,
2013-07-01 07:45:00,71.8,63.0,29.94,NNE,23,0.0,2.0,74,0.00,,,0.00,meteohub,2013-07-01 14:45:00,
2013-07-01 07:50:00,74.5,64.4,29.94,West,270,1.0,2.0,71,0.00,,,0.00,meteohub,2013-07-01 14:50:00,
2013-07-01 07:55:00,76.5,65.5,29.94,West,270,0.0,2.0,69,0.00,,,0.00,meteohub,2013-07-01 14:55:00,
2013-07-01 08:00:00,77.9,64.2,29.94,North,0,2.0,2.0,63,0.00,,,0.00,meteohub,2013-07-01 15:00:00,
2013-07-01 08:05:00,79.2,65.8,29.94,West,270,1.0,2.0,64,0.00,,,0.00,meteohub,2013-07-01 15:05:00,
2013-07-01 08:10:00,79.9,65.7,29.94,West,270,1.0,3.0,62,0.00,,,0.00,meteohub,2013-07-01 15:10:00,
2013-07-01 08:15:00,81.5,66.7,29.94,North,0,2.0,3.0,61,0.00,,,0.00,meteohub,2013-07-01 15:15:00,
2013-07-01 08:20:00,82.9,67.6,29.95,North,0,2.0,3.0,60,0.00,,,0.00,meteohub,2013-07-01 15:20:00,
2013-07-01 08:25:00,83.8,68.9,29.95,SSW,203,0.0,2.0,61,0.00,,,0.00,meteohub,2013-07-01 15:25:00,
2013-07-01 08:30:00,82.9,66.6,29.94,West,270,1.0,2.0,58,0.00,,,0.00,meteohub,2013-07-01 15:30:00,
2013-07-01 08:35:00,83.7,66.4,29.94,North,0,1.0,2.0,56,0.00,,,0.00,meteohub,2013-07-01 15:35:00,
2013-07-01 08:40:00,83.3,66.0,29.94,North,0,1.0,2.0,56,0.00,,,0.00,meteohub,2013-07-01 15:40:00,
2013-07-01 08:45:00,83.8,66.4,29.94,North,0,2.0,2.0,56,0.00,,,0.00,meteohub,2013-07-01 15:45:00,
2013-07-01 08:50:00,86.9,69.3,29.94,North,0,1.0,2.0,56,0.00,,,0.00,meteohub,2013-07-01 15:50:00,
2013-07-01 08:55:00,90.1,71.8,29.94,ESE,113,2.0,2.0,55,0.00,,,0.00,meteohub,2013-07-01 15:55:00,
2013-07-01 09:00:00,85.8,67.8,29.94,East,90,1.0,2.0,55,0.00,,,0.00,meteohub,2013-07-01 16:00:00,
2013-07-01 09:05:00,86.5,68.4,29.94,North,0,0.0,2.0,55,0.00,,,0.00,meteohub,2013-07-01 16:05:00,
2013-07-01 09:10:00,86.9,68.2,29.93,WNW,293,1.0,2.0,54,0.00,,,0.00,meteohub,2013-07-01 16:10:00,
2013-07-01 09:11:00,88.0,68.7,29.93,WSW,248,2.0,2.0,53,0.00,,,0.00,meteohub,2013-07-01 16:11:00,
2013-07-01 09:16:00,88.3,69.6,29.93,NNE,23,1.0,2.0,54,0.00,,,0.00,meteohub,2013-07-01 16:16:00,
2013-07-01 09:21:00,87.1,67.8,29.93,West,270,1.0,4.0,53,0.00,,,0.00,meteohub,2013-07-01 16:21:00,
2013-07-01 09:26:00,87.4,68.7,29.93,North,0,0.0,4.0,54,0.00,,,0.00,meteohub,2013-07-01 16:26:00,
2013-07-01 09:31:00,87.8,68.5,29.93,West,270,2.0,4.0,53,0.00,,,0.00,meteohub,2013-07-01 16:31:00,
2013-07-01 09:36:00,88.2,68.9,29.93,WSW,248,0.0,2.0,53,0.00,,,0.00,meteohub,2013-07-01 16:36:00,
2013-07-01 09:41:00,87.8,68.5,29.93,NW,315,1.0,2.0,53,0.00,,,0.00,meteohub,2013-07-01 16:41:00,
2013-07-01 09:46:00,87.3,68.0,29.94,West,270,1.0,2.0,53,0.00,,,0.00,meteohub,2013-07-01 16:46:00,
2013-07-01 09:51:00,92.5,73.4,29.93,North,0,2.0,2.0,54,0.00,,,0.00,meteohub,2013-07-01 16:51:00,
2013-07-01 09:56:00,87.4,68.7,29.93,West,270,0.0,2.0,54,0.00,,,0.00,meteohub,2013-07-01 16:56:00,
2013-07-01 10:01:00,87.4,68.7,29.93,West,270,2.0,2.0,54,0.00,,,0.00,meteohub,2013-07-01 17:01:00,
2013-07-01 10:06:00,88.2,68.9,29.92,West,270,2.0,2.0,53,0.00,,,0.00,meteohub,2013-07-01 17:06:00,
2013-07-01 10:11:00,85.8,67.3,29.92,West,270,1.0,2.0,54,0.00,,,0.00,meteohub,2013-07-01 17:11:00,
2013-07-01 10:16:00,88.7,70.0,29.92,North,0,0.0,2.0,54,0.00,,,0.00,meteohub,2013-07-01 17:16:00,
2013-07-01 10:21:00,88.3,69.6,29.91,North,0,0.0,2.0,54,0.00,,,0.00,meteohub,2013-07-01 17:21:00,
2013-07-01 10:26:00,88.3,69.6,29.91,North,0,0.0,3.0,54,0.00,,,0.00,meteohub,2013-07-01 17:26:00,
2013-07-01 10:31:00,86.7,66.9,29.91,North,0,2.0,3.0,52,0.00,,,0.00,meteohub,2013-07-01 17:31:00,
2013-07-01 10:36:00,86.9,67.6,29.91,West,270,2.0,2.0,53,0.00,,,0.00,meteohub,2013-07-01 17:36:00,
2013-07-01 10:41:00,86.4,68.4,29.91,NNE,23,2.0,2.0,55,0.00,,,0.00,meteohub,2013-07-01 17:41:00,
2013-07-01 10:46:00,90.7,72.3,29.91,SE,135,2.0,2.0,55,0.00,,,0.00,meteohub,2013-07-01 17:46:00,
2013-07-01 10:51:00,89.8,70.9,29.91,West,270,2.0,2.0,54,0.00,,,0.00,meteohub,2013-07-01 17:51:00,
2013-07-01 10:56:00,86.4,67.8,29.91,West,270,2.0,2.0,54,0.00,,,0.00,meteohub,2013-07-01 17:56:00,
2013-07-01 11:01:00,86.2,67.6,29.91,West,270,2.0,2.0,54,0.00,,,0.00,meteohub,2013-07-01 18:01:00,
2013-07-01 11:06:00,86.5,68.0,29.91,West,270,2.0,2.0,54,0.00,,,0.00,meteohub,2013-07-01 18:06:00,
2013-07-01 11:11:00,84.4,65.3,29.91,West,270,1.0,2.0,53,0.00,,,0.00,meteohub,2013-07-01 18:11:00,
2013-07-01 11:16:00,87.6,68.9,29.92,SE,135,1.0,3.0,54,0.00,,,0.00,meteohub,2013-07-01 18:16:00,
2013-07-01 11:22:00,86.7,68.0,29.91,SSW,203,3.0,4.0,54,0.00,,,0.00,meteohub,2013-07-01 18:22:00,
2013-07-01 11:27:00,88.0,68.7,29.91,North,0,2.0,4.0,53,0.00,,,0.00,meteohub,2013-07-01 18:27:00,
2013-07-01 11:32:00,77.5,57.9,29.91,South,180,4.0,4.0,51,0.00,,,0.00,meteohub,2013-07-01 18:32:00,
2013-07-01 11:37:00,106.3,85.6,29.91,ENE,68,2.0,4.0,53,0.00,,,0.00,meteohub,2013-07-01 18:37:00,
2013-07-01 11:42:00,88.9,68.9,29.91,NNE,23,2.0,4.0,52,0.00,,,0.00,meteohub,2013-07-01 18:42:00,
2013-07-01 11:47:00,91.0,70.3,29.91,West,270,2.0,4.0,51,0.00,,,0.00,meteohub,2013-07-01 18:47:00,
2013-07-01 11:52:00,92.5,71.8,29.91,North,0,2.0,2.0,51,0.00,,,0.00,meteohub,2013-07-01 18:52:00,
2013-07-01 11:57:00,96.3,73.4,29.92,SSW,203,2.0,2.0,48,0.00,,,0.00,meteohub,2013-07-01 18:57:00,
2013-07-01 12:02:00,94.1,72.7,29.92,WSW,248,1.0,2.0,50,0.00,,,0.00,meteohub,2013-07-01 19:02:00,
2013-07-01 12:07:00,103.6,80.8,29.92,West,270,2.0,2.0,49,0.00,,,0.00,meteohub,2013-07-01 19:07:00,
2013-07-01 12:12:00,94.3,72.9,29.92,North,0,0.0,2.0,50,0.00,,,0.00,meteohub,2013-07-01 19:12:00,
2013-07-01 12:17:00,93.6,72.1,29.92,West,270,0.0,2.0,50,0.00,,,0.00,meteohub,2013-07-01 19:17:00,
2013-07-01 12:22:00,91.9,69.4,29.93,SSW,203,2.0,2.0,48,0.00,,,0.00,meteohub,2013-07-01 19:22:00,
2013-07-01 12:27:00,93.9,71.8,29.93,North,0,2.0,3.0,49,0.00,,,0.00,meteohub,2013-07-01 19:27:00,
2013-07-01 12:32:00,90.9,69.6,29.93,North,0,2.0,3.0,50,0.00,,,0.00,meteohub,2013-07-01 19:32:00,
2013-07-01 12:37:00,91.9,70.7,29.93,North,0,2.0,3.0,50,0.00,,,0.00,meteohub,2013-07-01 19:37:00,
2013-07-01 12:42:00,91.8,71.1,29.93,North,0,1.0,3.0,51,0.00,,,0.00,meteohub,2013-07-01 19:42:00,
2013-07-01 12:47:00,91.2,71.1,29.93,SSE,158,2.0,3.0,52,0.00,,,0.00,meteohub,2013-07-01 19:47:00,
2013-07-01 12:52:00,89.8,68.7,29.93,ESE,113,2.0,2.0,50,0.00,,,0.00,meteohub,2013-07-01 19:52:00,
2013-07-01 12:57:00,94.6,74.3,29.93,SE,135,1.0,2.0,52,0.00,,,0.00,meteohub,2013-07-01 19:57:00,
2013-07-01 13:02:00,89.1,69.6,29.93,West,270,1.0,2.0,53,0.00,,,0.00,meteohub,2013-07-01 20:02:00,
2013-07-01 13:07:00,91.8,71.1,29.93,North,0,1.0,2.0,51,0.00,,,0.00,meteohub,2013-07-01 20:07:00,
2013-07-01 13:12:00,95.0,73.4,29.93,SSW,203,2.0,3.0,50,0.00,,,0.00,meteohub,2013-07-01 20:12:00,
2013-07-01 13:17:00,91.4,70.2,29.93,West,270,2.0,3.0,50,0.00,,,0.00,meteohub,2013-07-01 20:17:00,
2013-07-01 13:22:00,93.9,73.0,29.93,WSW,248,1.0,3.0,51,0.00,,,0.00,meteohub,2013-07-01 20:22:00,
2013-07-01 13:27:00,100.8,77.5,29.93,SSE,158,1.0,2.0,48,0.00,,,0.00,meteohub,2013-07-01 20:27:00,
2013-07-01 13:32:00,93.4,70.2,29.93,NNE,23,3.0,3.0,47,0.00,,,0.00,meteohub,2013-07-01 20:32:00,
2013-07-01 13:37:00,98.2,74.5,29.93,SSW,203,2.0,3.0,47,0.00,,,0.00,meteohub,2013-07-01 20:37:00,
2013-07-01 13:42:00,91.2,68.7,29.93,SE,135,3.0,4.0,48,0.00,,,0.00,meteohub,2013-07-01 20:42:00,
2013-07-01 13:47:00,97.5,73.9,29.93,SSW,203,2.0,4.0,47,0.00,,,0.00,meteohub,2013-07-01 20:47:00,
2013-07-01 13:52:00,94.8,71.4,29.93,North,0,3.0,3.0,47,0.00,,,0.00,meteohub,2013-07-01 20:52:00,
2013-07-01 13:57:00,93.4,70.2,29.93,West,270,1.0,3.0,47,0.00,,,0.00,meteohub,2013-07-01 20:57:00,
2013-07-01 14:02:00,93.4,70.2,29.93,West,270,2.0,3.0,47,0.00,,,0.00,meteohub,2013-07-01 21:02:00,
2013-07-01 14:07:00,104.4,80.1,29.94,North,0,1.0,3.0,47,0.00,,,0.00,meteohub,2013-07-01 21:07:00,
2013-07-01 14:12:00,92.8,69.6,29.93,SE,135,2.0,3.0,47,0.00,,,0.00,meteohub,2013-07-01 21:12:00,
2013-07-01 14:17:00,96.4,72.3,29.93,North,0,1.0,3.0,46,0.00,,,0.00,meteohub,2013-07-01 21:17:00,
2013-07-01 14:22:00,96.1,72.0,29.93,West,270,2.0,4.0,46,0.00,,,0.00,meteohub,2013-07-01 21:22:00,
2013-07-01 14:27:00,96.1,72.5,29.92,North,0,1.0,4.0,47,0.00,,,0.00,meteohub,2013-07-01 21:27:00,
2013-07-01 14:32:00,97.3,72.5,29.92,North,0,2.0,4.0,45,0.00,,,0.00,meteohub,2013-07-01 21:32:00,
2013-07-01 14:37:00,102.2,76.8,29.92,SSW,203,1.0,2.0,45,0.00,,,0.00,meteohub,2013-07-01 21:37:00,
2013-07-01 14:42:00,93.4,68.2,29.92,North,0,2.0,2.0,44,0.00,,,0.00,meteohub,2013-07-01 21:42:00,
2013-07-01 14:47:00,99.1,74.7,29.92,NNE,23,1.0,2.0,46,0.00,,,0.00,meteohub,2013-07-01 21:47:00,
2013-07-01 14:52:00,91.9,67.6,29.92,North,0,2.0,3.0,45,0.00,,,0.00,meteohub,2013-07-01 21:52:00,
2013-07-01 14:57:00,102.2,77.5,29.92,North,0,2.0,3.0,46,0.00,,,0.00,meteohub,2013-07-01 21:57:00,
2013-07-01 15:02:00,97.0,72.1,29.92,North,0,2.0,3.0,45,0.00,,,0.00,meteohub,2013-07-01 22:02:00,
2013-07-01 15:07:00,97.0,72.1,29.91,North,0,2.0,4.0,45,0.00,,,0.00,meteohub,2013-07-01 22:07:00,
2013-07-01 15:12:00,98.2,73.2,29.92,WSW,248,1.0,4.0,45,0.00,,,0.00,meteohub,2013-07-01 22:12:00,
2013-07-01 15:17:00,97.9,72.9,29.92,North,0,0.0,2.0,45,0.00,,,0.00,meteohub,2013-07-01 22:17:00,
2013-07-01 15:22:00,95.4,71.2,29.91,West,270,1.0,2.0,46,0.00,,,0.00,meteohub,2013-07-01 22:22:00,
2013-07-01 15:27:00,96.4,71.6,29.91,West,270,1.0,2.0,45,0.00,,,0.00,meteohub,2013-07-01 22:27:00,
2013-07-01 15:33:00,94.1,70.2,29.92,SE,135,2.0,3.0,46,0.00,,,0.00,meteohub,2013-07-01 22:33:00,
2013-07-01 15:38:00,95.5,70.2,29.92,West,270,3.0,3.0,44,0.00,,,0.00,meteohub,2013-07-01 22:38:00,
2013-07-01 15:43:00,99.7,75.2,29.92,NNE,23,1.0,3.0,46,0.00,,,0.00,meteohub,2013-07-01 22:43:00,
2013-07-01 15:48:00,95.0,70.3,29.92,North,0,2.0,4.0,45,0.00,,,0.00,meteohub,2013-07-01 22:48:00,
2013-07-01 15:53:00,96.3,72.1,29.92,SSW,203,2.0,4.0,46,0.00,,,0.00,meteohub,2013-07-01 22:53:00,
2013-07-01 15:58:00,95.9,71.8,29.92,North,0,1.0,3.0,46,0.00,,,0.00,meteohub,2013-07-01 22:58:00,
2013-07-01 16:03:00,97.9,73.6,29.92,WSW,248,1.0,4.0,46,0.00,,,0.00,meteohub,2013-07-01 23:03:00,
2013-07-01 16:08:00,94.3,69.6,29.92,North,0,1.0,4.0,45,0.00,,,0.00,meteohub,2013-07-01 23:08:00,
2013-07-01 16:13:00,96.3,72.1,29.92,North,0,1.0,2.0,46,0.00,,,0.00,meteohub,2013-07-01 23:13:00,
2013-07-01 16:18:00,96.1,73.8,29.92,West,270,1.0,2.0,49,0.00,,,0.00,meteohub,2013-07-01 23:18:00,
2013-07-01 16:23:00,95.9,73.0,29.92,NNW,338,2.0,2.0,48,0.00,,,0.00,meteohub,2013-07-01 23:23:00,
2013-07-01 16:28:00,95.7,71.6,29.92,SE,135,2.0,2.0,46,0.00,,,0.00,meteohub,2013-07-01 23:28:00,
2013-07-01 16:33:00,97.7,74.7,29.92,WSW,248,1.0,2.0,48,0.00,,,0.00,meteohub,2013-07-01 23:33:00,
2013-07-01 16:38:00,95.2,73.0,29.92,North,0,2.0,2.0,49,0.00,,,0.00,meteohub,2013-07-01 23:38:00,
2013-07-01 16:43:00,101.5,77.5,29.92,SSE,158,2.0,2.0,47,0.00,,,0.00,meteohub,2013-07-01 23:43:00,
2013-07-01 16:48:00,104.4,80.8,29.93,South,180,2.0,2.0,48,0.00,,,0.00,meteohub,2013-07-01 23:48:00,
2013-07-01 16:53:00,95.0,72.9,29.92,West,270,0.0,2.0,49,0.00,,,0.00,meteohub,2013-07-01 23:53:00,
2013-07-01 16:58:00,93.6,70.9,29.93,North,0,1.0,2.0,48,0.00,,,0.00,meteohub,2013-07-01 23:58:00,
2013-07-01 17:03:00,95.5,72.7,29.93,East,90,1.0,2.0,48,0.00,,,0.00,meteohub,2013-07-02 00:03:00,
2013-07-01 17:08:00,97.2,73.6,29.93,North,0,2.0,2.0,47,0.00,,,0.00,meteohub,2013-07-02 00:08:00,
2013-07-01 17:13:00,102.0,77.9,29.92,SSW,203,1.0,2.0,47,0.00,,,0.00,meteohub,2013-07-02 00:13:00,
2013-07-01 17:18:00,97.3,74.3,29.92,WSW,248,1.0,2.0,48,0.00,,,0.00,meteohub,2013-07-02 00:18:00,
2013-07-01 17:23:00,96.1,73.2,29.92,North,0,0.0,2.0,48,0.00,,,0.00,meteohub,2013-07-02 00:23:00,
2013-07-01 17:28:00,95.0,73.4,29.92,North,0,1.0,2.0,50,0.00,,,0.00,meteohub,2013-07-02 00:28:00,
2013-07-01 17:33:00,91.2,70.5,29.92,North,0,0.0,2.0,51,0.00,,,0.00,meteohub,2013-07-02 00:33:00,
2013-07-01 17:38:00,87.3,68.5,29.92,North,0,2.0,2.0,54,0.00,,,0.00,meteohub,2013-07-02 00:38:00,
2013-07-01 17:43:00,87.1,69.4,29.92,North,0,0.0,2.0,56,0.00,,,0.00,meteohub,2013-07-02 00:43:00,
2013-07-01 17:48:00,85.5,68.0,29.92,North,0,1.0,2.0,56,0.00,,,0.00,meteohub,2013-07-02 00:48:00,
2013-07-01 17:53:00,84.9,68.0,29.93,North,0,1.0,2.0,57,0.00,,,0.00,meteohub,2013-07-02 00:53:00,
2013-07-01 17:58:00,84.9,68.9,29.93,North,0,0.0,2.0,59,0.00,,,0.00,meteohub,2013-07-02 00:58:00,
2013-07-01 18:03:00,83.1,67.8,29.93,North,0,0.0,2.0,60,0.00,,,0.00,meteohub,2013-07-02 01:03:00,
2013-07-01 18:08:00,83.3,68.4,29.93,North,-999,-999.0,1.0,61,0.00,,,0.00,meteohub,2013-07-02 01:08:00,
2013-07-01 18:13:00,83.5,68.5,29.93,North,0,0.0,1.0,61,0.00,,,0.00,meteohub,2013-07-02 01:13:00,
2013-07-01 18:18:00,83.1,69.3,29.93,North,0,0.0,0.0,63,0.00,,,0.00,meteohub,2013-07-02 01:18:00,
2013-07-01 18:23:00,81.7,67.8,29.93,South,180,2.0,0.0,63,0.00,,,0.00,meteohub,2013-07-02 01:23:00,
2013-07-01 18:28:00,81.7,67.8,29.93,North,0,2.0,0.0,63,0.00,,,0.00,meteohub,2013-07-02 01:28:00,
2013-07-01 18:33:00,81.7,67.8,29.92,North,0,1.0,2.0,63,0.00,,,0.00,meteohub,2013-07-02 01:33:00,
2013-07-01 18:38:00,81.3,67.5,29.93,North,0,2.0,4.0,63,0.00,,,0.00,meteohub,2013-07-02 01:38:00,
2013-07-01 18:43:00,80.6,66.9,29.93,North,0,2.0,4.0,63,0.00,,,0.00,meteohub,2013-07-02 01:43:00,
2013-07-01 18:48:00,79.9,67.1,29.93,North,0,2.0,4.0,65,0.00,,,0.00,meteohub,2013-07-02 01:48:00,
2013-07-01 18:53:00,79.3,66.0,29.93,North,0,2.0,3.0,64,0.00,,,0.00,meteohub,2013-07-02 01:53:00,
2013-07-01 18:58:00,78.6,65.5,29.93,North,0,1.0,3.0,64,0.00,,,0.00,meteohub,2013-07-02 01:58:00,
2013-07-01 19:03:00,78.4,65.7,29.93,North,0,1.0,4.0,65,0.00,,,0.00,meteohub,2013-07-02 02:03:00,
2013-07-01 19:09:00,69.8,58.3,29.93,North,0,2.0,4.0,67,0.00,,,0.00,meteohub,2013-07-02 02:09:00,
2013-07-01 19:14:00,77.7,65.8,29.93,NNE,23,2.0,4.0,67,0.00,,,0.00,meteohub,2013-07-02 02:14:00,
2013-07-01 19:19:00,77.5,66.6,29.93,WSW,248,1.0,3.0,69,0.00,,,0.00,meteohub,2013-07-02 02:19:00,
2013-07-01 19:24:00,77.2,66.2,29.93,West,270,2.0,2.0,69,0.00,,,0.00,meteohub,2013-07-02 02:24:00,
2013-07-01 19:29:00,76.5,66.4,29.93,North,0,1.0,2.0,71,0.00,,,0.00,meteohub,2013-07-02 02:29:00,
2013-07-01 19:34:00,76.1,66.0,29.94,NNE,23,1.0,2.0,71,0.00,,,0.00,meteohub,2013-07-02 02:34:00,
2013-07-01 19:39:00,75.4,66.2,29.94,North,0,1.0,2.0,73,0.00,,,0.00,meteohub,2013-07-02 02:39:00,
2013-07-01 19:44:00,75.0,66.6,29.94,North,-999,-999.0,1.0,75,0.00,,,0.00,meteohub,2013-07-02 02:44:00,
2013-07-01 19:49:00,74.8,66.4,29.93,North,0,0.0,1.0,75,0.00,,,0.00,meteohub,2013-07-02 02:49:00,
2013-07-01 19:54:00,74.5,66.4,29.93,North,0,0.0,1.0,76,0.00,,,0.00,meteohub,2013-07-02 02:54:00,
2013-07-01 19:59:00,74.3,66.6,29.94,SSW,203,0.0,1.0,77,0.00,,,0.00,meteohub,2013-07-02 02:59:00,
2013-07-01 20:04:00,74.1,66.7,29.94,SSW,203,0.0,1.0,78,0.00,,,0.00,meteohub,2013-07-02 03:04:00,
2013-07-01 20:09:00,74.3,66.6,29.94,WNW,293,1.0,0.0,77,0.00,,,0.00,meteohub,2013-07-02 03:09:00,
2013-07-01 20:14:00,74.3,66.6,29.94,North,-999,-999.0,1.0,77,0.00,,,0.00,meteohub,2013-07-02 03:14:00,
2013-07-01 20:19:00,73.9,66.6,29.93,North,-999,-999.0,1.0,78,0.00,,,0.00,meteohub,2013-07-02 03:19:00,
2013-07-01 20:24:00,73.8,66.4,29.94,North,-999,-999.0,1.0,78,0.00,,,0.00,meteohub,2013-07-02 03:24:00,
2013-07-01 20:29:00,73.6,66.4,29.94,North,-999,-999.0,-999.0,78,0.00,,,0.00,meteohub,2013-07-02 03:29:00,
2013-07-01 20:34:00,73.2,66.4,29.94,North,0,0.0,-999.0,79,0.00,,,0.00,meteohub,2013-07-02 03:34:00,
2013-07-01 20:39:00,72.9,66.0,29.94,North,0,0.0,1.0,79,0.00,,,0.00,meteohub,2013-07-02 03:39:00,
2013-07-01 20:44:00,72.5,65.7,29.94,North,0,1.0,1.0,79,0.00,,,0.00,meteohub,2013-07-02 03:44:00,
2013-07-01 20:49:00,72.7,66.2,29.95,West,270,0.0,1.0,80,0.00,,,0.00,meteohub,2013-07-02 03:49:00,
2013-07-01 20:54:00,72.1,65.7,29.95,North,0,0.0,1.0,80,0.00,,,0.00,meteohub,2013-07-02 03:54:00,
2013-07-01 20:59:00,71.8,65.7,29.95,North,0,0.0,1.0,81,0.00,,,0.00,meteohub,2013-07-02 03:59:00,
2013-07-01 21:01:00,71.6,65.5,29.95,North,0,1.0,1.0,81,0.00,,,0.00,meteohub,2013-07-02 04:01:00,
2013-07-01 21:02:00,71.4,65.3,29.95,North,0,2.0,2.0,81,0.00,,,0.00,meteohub,2013-07-02 04:02:00,
2013-07-01 21:07:00,71.6,65.5,29.95,West,270,0.0,2.0,81,0.00,,,0.00,meteohub,2013-07-02 04:07:00,
2013-07-01 21:12:00,70.9,64.4,29.95,WSW,248,1.0,2.0,80,0.00,,,0.00,meteohub,2013-07-02 04:12:00,
2013-07-01 21:17:00,71.6,65.5,29.95,NNE,23,0.0,2.0,81,0.00,,,0.00,meteohub,2013-07-02 04:17:00,
2013-07-01 21:22:00,71.6,65.5,29.96,North,-999,-999.0,1.0,81,0.00,,,0.00,meteohub,2013-07-02 04:22:00,
2013-07-01 21:27:00,71.2,65.1,29.96,North,-999,-999.0,1.0,81,0.00,,,0.00,meteohub,2013-07-02 04:27:00,
2013-07-01 21:32:00,70.9,64.8,29.96,North,0,0.0,0.0,81,0.00,,,0.00,meteohub,2013-07-02 04:32:00,
2013-07-01 21:37:00,70.5,64.8,29.97,North,0,0.0,2.0,82,0.00,,,0.00,meteohub,2013-07-02 04:37:00,
2013-07-01 21:42:00,70.3,64.6,29.96,North,0,0.0,2.0,82,0.00,,,0.00,meteohub,2013-07-02 04:42:00,
2013-07-01 21:47:00,70.3,64.6,29.96,West,270,0.0,1.0,82,0.00,,,0.00,meteohub,2013-07-02 04:47:00,
2013-07-01 21:52:00,70.0,64.2,29.97,West,270,0.0,1.0,82,0.00,,,0.00,meteohub,2013-07-02 04:52:00,
2013-07-01 21:57:00,68.0,62.6,29.96,SSW,203,1.0,1.0,83,0.00,,,0.00,meteohub,2013-07-02 04:57:00,
2013-07-01 22:02:00,69.8,63.7,29.96,WSW,248,0.0,1.0,81,0.00,,,0.00,meteohub,2013-07-02 05:02:00,
2013-07-01 22:07:00,70.7,65.3,29.97,West,270,1.0,1.0,83,0.00,,,0.00,meteohub,2013-07-02 05:07:00,
2013-07-01 22:12:00,68.9,63.5,29.97,North,0,0.0,1.0,83,0.00,,,0.00,meteohub,2013-07-02 05:12:00,
2013-07-01 22:17:00,68.9,63.1,29.97,North,0,0.0,1.0,82,0.00,,,0.00,meteohub,2013-07-02 05:17:00,
2013-07-01 22:22:00,68.7,63.0,29.97,North,0,0.0,1.0,82,0.00,,,0.00,meteohub,2013-07-02 05:22:00,
2013-07-01 22:27:00,69.1,63.7,29.97,North,0,1.0,1.0,83,0.00,,,0.00,meteohub,2013-07-02 05:27:00,
2013-07-01 22:32:00,68.2,62.8,29.97,North,0,1.0,1.0,83,0.00,,,0.00,meteohub,2013-07-02 05:32:00,
2013-07-01 22:37:00,68.4,63.0,29.97,West,270,0.0,1.0,83,0.00,,,0.00,meteohub,2013-07-02 05:37:00,
2013-07-01 22:42:00,69.8,64.4,29.97,North,0,3.0,3.0,83,0.00,,,0.00,meteohub,2013-07-02 05:42:00,
2013-07-01 22:47:00,70.0,64.2,29.98,North,0,1.0,3.0,82,0.00,,,0.00,meteohub,2013-07-02 05:47:00,
2013-07-01 22:52:00,69.1,63.0,29.98,North,0,1.0,3.0,81,0.00,,,0.00,meteohub,2013-07-02 05:52:00,
2013-07-01 22:57:00,68.4,62.2,29.98,North,0,1.0,3.0,81,0.00,,,0.00,meteohub,2013-07-02 05:57:00,
2013-07-01 23:02:00,68.5,62.8,29.98,West,270,0.0,3.0,82,0.00,,,0.00,meteohub,2013-07-02 06:02:00,
2013-07-01 23:07:00,67.6,61.9,29.98,North,0,2.0,3.0,82,0.00,,,0.00,meteohub,2013-07-02 06:07:00,
2013-07-01 23:12:00,67.6,61.9,29.99,North,0,2.0,2.0,82,0.00,,,0.00,meteohub,2013-07-02 06:12:00,
2013-07-01 23:17:00,68.0,62.2,29.99,WSW,248,0.0,2.0,82,0.00,,,0.00,meteohub,2013-07-02 06:17:00,
2013-07-01 23:22:00,67.1,61.3,29.99,North,0,1.0,2.0,82,0.00,,,0.00,meteohub,2013-07-02 06:22:00,
2013-07-01 23:28:00,66.9,61.5,29.99,North,0,0.0,2.0,83,0.00,,,0.00,meteohub,2013-07-02 06:28:00,
2013-07-01 23:33:00,66.6,61.2,30.00,North,0,0.0,2.0,83,0.00,,,0.00,meteohub,2013-07-02 06:33:00,
2013-07-01 23:38:00,66.7,61.7,30.00,West,270,0.0,2.0,84,0.00,,,0.00,meteohub,2013-07-02 06:38:00,
2013-07-01 23:43:00,66.0,61.3,30.00,North,0,0.0,2.0,85,0.00,,,0.00,meteohub,2013-07-02 06:43:00,
2013-07-01 23:48:00,65.5,60.8,30.00,North,0,0.0,2.0,85,0.00,,,0.00,meteohub,2013-07-02 06:48:00,
2013-07-01 23:53:00,65.8,61.5,30.01,South,180,3.0,3.0,86,0.00,,,0.00,meteohub,2013-07-02 06:53:00,
2013-07-01 23:58:00,64.9,61.3,30.01,North,0,0.0,3.0,88,0.00,,,0.00,meteohub,2013-07-02 06:58:00,